Bismarck, ND

1:59 PM CDT on June 28, 2017 (GMT -0500)
Bismarck Municipal

Weather History for KBIS - January, 2013

Change the Weather History Date:

Thursday, January 24, 2013

  Actual Average Record
Temperature  
Mean Temperature 10 °F 13 °F  
Max Temperature 22 °F 24 °F 54 °F (1942)
Min Temperature -3 °F 2 °F -34 °F (1904)
Degree Days  
Heating Degree Days 55 52  
Month to date heating degree days 1196 1260  
Since 1 July heating degree days 4725 4760  
Cooling Degree Days 0 0  
Month to date cooling degree days 0 0  
Year to date cooling degree days 0 0  
Moisture  
Dew Point -1 °F    
Average Humidity 73    
Maximum Humidity 80    
Minimum Humidity 65    
Precipitation  
Precipitation T in 0.02 in 0.24 in (2015)
Month to date precipitation 0.25 0.35  
Year to date precipitation 0.25 0.35  
Snow  
Snow T in 0.30 in 5.60 in (1982)
Month to date snowfall 2.8 7.2  
Since 1 July snowfall 25.0 27.7  
Snow Depth 4.00 in    
Sea Level Pressure  
Sea Level Pressure 30.22 in    
Wind  
Wind Speed 13 mph (South)    
Max Wind Speed 25 mph    
Max Gust Speed 31 mph    
Visibility 10 miles    
Events      
T = Trace of Precipitation, MM = Missing Value Source: NWS Daily Summary

Daily Weather History Graph

Daily Weather History Graph

Search for Another Location

Airport or City:

Trip Planner

Search our weather history database for the weather conditions in past years. The results will help you decide how hot, cold, wet, or windy it might be!

Date:

Astronomy

Jan. 24, 2013 Rise Set
Actual Time 8:15 AM CST 5:34 PM CST
Civil Twilight 7:42 AM CST 6:08 PM CST
Nautical Twilight 7:05 AM CST 6:45 PM CST
Astronomical Twilight 6:30 AM CST 7:20 PM CST
Moon 3:36 PM CST (1/24) 6:17 AM CST (1/24)
Length of Visible Light 10h 25m
Length of Day
9h 18m
Waxing Gibbous, 94% of the Moon is Illuminated
Jan 24
Waxing Gibbous
Jan 26
Full
Feb 3
Last Quarter
Feb 10
New
Feb 17
First Quarter

Hourly Weather History & Observations

Time (CST) Temp. Windchill Dew Point Humidity Pressure Visibility Wind Dir Wind Speed Gust Speed Precip Events Conditions
12:52 AM -2.0 °F -21.9 °F -9.0 °F 72% 30.61 in 10.0 mi SE 15.0 mph - N/A   Clear
1:52 AM -2.9 °F -20.8 °F -9.9 °F 72% 30.56 in 10.0 mi ESE 11.5 mph - N/A   Clear
2:52 AM -2.0 °F -22.6 °F -9.0 °F 72% 30.53 in 10.0 mi SE 16.1 mph - N/A   Clear
3:52 AM -2.9 °F -25.0 °F -9.9 °F 72% 30.51 in 10.0 mi SE 18.4 mph - N/A   Clear
4:52 AM -2.9 °F -25.0 °F -11.0 °F 68% 30.51 in 10.0 mi SSE 18.4 mph - N/A   Clear
5:52 AM -2.9 °F -24.4 °F -11.0 °F 68% 30.47 in 10.0 mi SE 17.3 mph - N/A   Clear
6:52 AM -2.9 °F -24.4 °F -11.0 °F 68% 30.40 in 10.0 mi SE 17.3 mph - N/A   Clear
7:52 AM -2.0 °F -23.3 °F -9.0 °F 72% 30.35 in 10.0 mi SE 17.3 mph - N/A   Partly Cloudy
8:52 AM -2.0 °F -25.5 °F -9.0 °F 72% 30.35 in 10.0 mi SSE 21.9 mph - N/A   Partly Cloudy
9:15 AM -2.0 °F -24.4 °F -8.0 °F 76% 30.20 in 10.0 mi SSE 19.6 mph - N/A   Mostly Cloudy
9:42 AM -0.9 °F -23.0 °F -8.0 °F 72% 30.17 in 10.0 mi SSE 19.6 mph - N/A   Overcast
9:52 AM -0.9 °F -20.6 °F -7.1 °F 75% 30.33 in 10.0 mi South 15.0 mph - N/A   Overcast
10:52 AM 1.9 °F -18.1 °F -5.1 °F 72% 30.30 in 10.0 mi SSE 17.3 mph - N/A   Overcast
11:33 AM 3.0 °F -17.3 °F -4.0 °F 73% 30.11 in 10.0 mi South 18.4 mph - N/A   Overcast
11:52 AM 3.9 °F -13.7 °F -4.0 °F 70% 30.25 in 10.0 mi South 13.8 mph - N/A   Mostly Cloudy
12:52 PM 7.0 °F -12.1 °F -2.0 °F 67% 30.21 in 10.0 mi South 18.4 mph 24.2 mph N/A   Overcast
1:52 PM 8.1 °F -7.0 °F -0.0 °F 70% 30.17 in 10.0 mi South 11.5 mph - N/A   Overcast
2:52 PM 9.0 °F -9.5 °F 3.0 °F 77% 30.09 in 10.0 mi SSE 18.4 mph - 0.00 in   Overcast
3:52 PM 12.0 °F -4.0 °F 3.0 °F 67% 30.09 in 10.0 mi South 15.0 mph - N/A   Mostly Cloudy
4:33 PM 12.0 °F -2.0 °F 3.9 °F 70% 29.96 in 10.0 mi SSW 11.5 mph - N/A   Mostly Cloudy
4:52 PM 12.0 °F -2.7 °F 3.9 °F 70% 30.06 in 10.0 mi South 12.7 mph - N/A   Mostly Cloudy
5:52 PM 12.0 °F 0.5 °F 5.0 °F 73% 30.09 in 10.0 mi SSW 8.1 mph - N/A   Clear
6:52 PM 10.9 °F 2.9 °F 5.0 °F 77% 30.06 in 10.0 mi SSW 4.6 mph - N/A   Clear
7:52 PM 12.0 °F - 6.1 °F 77% 30.06 in 10.0 mi Calm Calm - N/A   Mostly Cloudy
8:43 PM 12.0 °F 5.9 °F 6.1 °F 77% 29.93 in 10.0 mi West 3.5 mph - N/A   Scattered Clouds
8:52 PM 12.9 °F 3.8 °F 7.0 °F 77% 30.06 in 10.0 mi WSW 5.8 mph - N/A   Scattered Clouds
9:08 PM 12.9 °F 5.2 °F 7.0 °F 77% 29.93 in 10.0 mi West 4.6 mph - N/A   Mostly Cloudy
9:52 PM 14.0 °F 5.1 °F 9.0 °F 80% 30.07 in 10.0 mi NNW 5.8 mph - N/A   Overcast
10:52 PM 17.1 °F 6.6 °F 12.0 °F 81% 30.07 in 10.0 mi NNW 8.1 mph - N/A   Overcast
11:52 PM 21.0 °F 13.4 °F 16.0 °F 81% 30.07 in 10.0 mi WNW 5.8 mph - N/A   Overcast